Year,Month,Day,Hour,Minute,Value (Times are PST for barometer in hPa)
2019,09,01,00,00,967.80
2019,09,01,00,01,967.80
2019,09,01,00,02,967.80
2019,09,01,00,03,967.80
2019,09,01,00,04,967.80
2019,09,01,00,05,967.80
2019,09,01,00,06,967.80
2019,09,01,00,07,967.80
2019,09,01,00,08,967.80
2019,09,01,00,09,967.80
2019,09,01,00,10,967.80
2019,09,01,00,11,967.80
2019,09,01,00,12,967.80
2019,09,01,00,13,967.80
2019,09,01,00,14,967.80
2019,09,01,00,15,967.80
2019,09,01,00,16,967.80
2019,09,01,00,17,967.80
2019,09,01,00,18,967.80
2019,09,01,00,19,967.80
2019,09,01,00,20,967.80
2019,09,01,00,21,967.80
2019,09,01,00,22,967.80
2019,09,01,00,23,967.80
2019,09,01,00,24,967.80
2019,09,01,00,25,967.80
2019,09,01,00,26,967.80
2019,09,01,00,27,967.80
2019,09,01,00,28,967.80
2019,09,01,00,29,967.80
2019,09,01,00,30,967.80
2019,09,01,00,31,967.80
2019,09,01,00,32,967.80
2019,09,01,00,33,967.80
2019,09,01,00,34,967.80
2019,09,01,00,35,967.80
2019,09,01,00,36,967.80
2019,09,01,00,37,967.80
2019,09,01,00,38,967.80
2019,09,01,00,39,967.80
2019,09,01,00,40,967.80
2019,09,01,00,41,967.80
2019,09,01,00,42,967.80
2019,09,01,00,43,967.80
2019,09,01,00,44,967.80
2019,09,01,00,45,967.80
2019,09,01,00,46,967.80
2019,09,01,00,47,967.80
2019,09,01,00,48,967.80
2019,09,01,00,49,967.80
2019,09,01,00,50,967.80
2019,09,01,00,51,967.80
2019,09,01,00,52,967.80
2019,09,01,00,53,967.64
2019,09,01,00,54,967.63
2019,09,01,00,55,967.63
2019,09,01,00,56,967.63
2019,09,01,00,57,967.63
2019,09,01,00,58,967.63
2019,09,01,00,59,967.63
2019,09,01,01,00,967.63
2019,09,01,01,01,967.63
2019,09,01,01,02,967.63
2019,09,01,01,03,967.63
2019,09,01,01,04,967.63
2019,09,01,01,05,967.63
2019,09,01,01,06,967.63
2019,09,01,01,07,967.63
2019,09,01,01,08,967.63
2019,09,01,01,09,967.63
2019,09,01,01,10,967.63
2019,09,01,01,11,967.63
2019,09,01,01,12,967.63
2019,09,01,01,13,967.63
2019,09,01,01,14,967.63
2019,09,01,01,15,967.63
2019,09,01,01,16,967.63
2019,09,01,01,17,967.63
2019,09,01,01,18,967.63
2019,09,01,01,19,967.63
2019,09,01,01,20,967.63
2019,09,01,01,21,967.63
2019,09,01,01,22,967.63
2019,09,01,01,23,967.63
2019,09,01,01,24,967.63
2019,09,01,01,25,967.63
2019,09,01,01,26,967.63
2019,09,01,01,27,967.63
2019,09,01,01,28,967.63
2019,09,01,01,29,967.63
2019,09,01,01,30,967.63
2019,09,01,01,31,963.15
2019,09,01,01,32,920.56
2019,09,01,01,33,920.56
2019,09,01,01,34,920.56
2019,09,01,01,35,920.56
2019,09,01,01,36,920.56
2019,09,01,01,37,920.56
2019,09,01,01,38,920.56
2019,09,01,01,39,920.56
2019,09,01,01,40,920.56
2019,09,01,01,41,920.56
2019,09,01,01,42,920.56
2019,09,01,01,43,920.56
2019,09,01,01,44,920.56
2019,09,01,01,45,920.56
2019,09,01,01,46,920.56
2019,09,01,01,47,920.56
2019,09,01,01,48,920.56
2019,09,01,01,49,920.56
2019,09,01,01,50,920.56
2019,09,01,01,51,920.56
2019,09,01,01,52,920.56
2019,09,01,01,53,920.56
2019,09,01,01,54,920.56
2019,09,01,01,55,920.56
2019,09,01,01,56,920.56
2019,09,01,01,57,920.56
2019,09,01,01,58,920.56
2019,09,01,01,59,920.56
2019,09,01,02,00,920.56
2019,09,01,02,01,920.56
2019,09,01,02,02,920.56
2019,09,01,02,03,920.56
2019,09,01,02,04,920.56
2019,09,01,02,05,920.56
2019,09,01,02,06,920.56
2019,09,01,02,07,920.56
2019,09,01,02,08,920.56
2019,09,01,02,09,920.56
2019,09,01,02,10,920.56
2019,09,01,02,11,920.56
2019,09,01,02,12,920.56
2019,09,01,02,13,920.56
2019,09,01,02,14,920.56
2019,09,01,02,15,920.56
2019,09,01,02,16,920.56
2019,09,01,02,17,920.56
2019,09,01,02,18,920.56
2019,09,01,02,19,920.56
2019,09,01,02,20,920.56
2019,09,01,02,21,920.56
2019,09,01,02,22,920.56
2019,09,01,02,23,920.56
2019,09,01,02,24,920.56
2019,09,01,02,25,920.56
2019,09,01,02,26,920.56
2019,09,01,02,27,920.56
2019,09,01,02,28,920.56
2019,09,01,02,29,920.56
2019,09,01,02,30,920.56
2019,09,01,02,31,920.56
2019,09,01,02,32,920.56
2019,09,01,02,33,920.56
2019,09,01,02,34,920.56
2019,09,01,02,35,920.56
2019,09,01,02,36,920.56
2019,09,01,02,37,920.56
2019,09,01,02,38,920.56
2019,09,01,02,39,920.56
2019,09,01,02,40,920.56
2019,09,01,02,41,920.56
2019,09,01,02,42,920.56
2019,09,01,02,43,920.56
2019,09,01,02,44,920.56
2019,09,01,02,45,920.56
2019,09,01,02,46,920.56
2019,09,01,02,47,920.56
2019,09,01,02,48,920.56
2019,09,01,02,49,920.56
2019,09,01,02,50,920.56
2019,09,01,02,51,920.56
2019,09,01,02,52,920.56
2019,09,01,02,53,920.56
2019,09,01,02,54,920.56
2019,09,01,02,55,920.56
2019,09,01,02,56,920.56
2019,09,01,02,57,920.56
2019,09,01,02,58,920.56
2019,09,01,02,59,920.56
2019,09,01,03,00,920.56
2019,09,01,03,01,920.56
2019,09,01,03,02,920.56
2019,09,01,03,03,920.56
2019,09,01,03,04,920.56
2019,09,01,03,05,920.56
2019,09,01,03,06,920.56
2019,09,01,03,07,920.56
2019,09,01,03,08,920.56
2019,09,01,03,09,920.56
2019,09,01,03,10,920.56
2019,09,01,03,11,920.56
2019,09,01,03,12,920.56
2019,09,01,03,13,920.56
2019,09,01,03,14,920.56
2019,09,01,03,15,920.56
2019,09,01,03,16,920.56
2019,09,01,03,17,920.56
2019,09,01,03,18,920.56
2019,09,01,03,19,920.56
2019,09,01,03,20,920.56
2019,09,01,03,21,920.56
2019,09,01,03,22,920.56
2019,09,01,03,23,920.56
2019,09,01,03,24,920.56
2019,09,01,03,25,920.56
2019,09,01,03,26,920.56
2019,09,01,03,27,920.56
2019,09,01,03,28,920.56
2019,09,01,03,29,920.56
2019,09,01,03,30,920.56
2019,09,01,03,31,920.56
2019,09,01,03,32,920.56
2019,09,01,03,33,920.56
2019,09,01,03,34,920.56
2019,09,01,03,35,920.56
2019,09,01,03,36,920.56
2019,09,01,03,37,920.56
2019,09,01,03,38,920.56
2019,09,01,03,39,920.56
2019,09,01,03,40,920.56
2019,09,01,03,41,920.56
2019,09,01,03,42,920.56
2019,09,01,03,43,920.56
2019,09,01,03,44,920.56
2019,09,01,03,45,920.56
2019,09,01,03,46,920.56
2019,09,01,03,47,920.56
2019,09,01,03,48,920.56
2019,09,01,03,49,920.56
2019,09,01,03,50,920.56
2019,09,01,03,51,920.56
2019,09,01,03,52,920.56
2019,09,01,03,53,920.56
2019,09,01,03,54,920.56
2019,09,01,03,55,920.56
2019,09,01,03,56,920.56
2019,09,01,03,57,920.56
2019,09,01,03,58,920.56
2019,09,01,03,59,920.56
2019,09,01,04,00,920.56
2019,09,01,04,01,920.56
2019,09,01,04,02,920.56
2019,09,01,04,03,920.56
2019,09,01,04,04,920.56
2019,09,01,04,08,920.56
2019,09,01,04,09,920.56
2019,09,01,04,10,920.56
2019,09,01,04,11,920.56
2019,09,01,04,12,920.56
2019,09,01,04,13,920.56
2019,09,01,04,14,920.56
2019,09,01,04,15,920.56
2019,09,01,04,16,920.56
2019,09,01,04,17,920.56
2019,09,01,04,18,920.56
2019,09,01,04,19,920.56
2019,09,01,04,20,920.56
2019,09,01,04,21,920.56
2019,09,01,04,22,920.56
2019,09,01,04,23,920.56
2019,09,01,04,24,920.56
2019,09,01,04,25,920.56
2019,09,01,04,26,920.56
2019,09,01,04,27,920.56
2019,09,01,04,28,920.56
2019,09,01,04,29,920.56
2019,09,01,04,30,920.56
2019,09,01,04,31,920.56
2019,09,01,04,32,920.56
2019,09,01,04,33,920.56
2019,09,01,04,34,920.56
2019,09,01,04,35,920.56
2019,09,01,04,36,920.56
2019,09,01,04,37,920.56
2019,09,01,04,38,920.56
2019,09,01,04,39,920.56
2019,09,01,04,40,920.56
2019,09,01,04,41,920.56
2019,09,01,04,42,920.56
2019,09,01,04,43,920.56
2019,09,01,04,44,920.56
2019,09,01,04,45,920.56
2019,09,01,04,46,920.56
2019,09,01,04,47,920.56
2019,09,01,04,48,920.56
2019,09,01,04,49,920.56
2019,09,01,04,50,920.56
2019,09,01,04,51,920.56
2019,09,01,04,52,920.56
2019,09,01,04,53,920.56
2019,09,01,04,54,920.56
2019,09,01,04,55,920.56
2019,09,01,04,56,920.56
2019,09,01,04,57,920.56
2019,09,01,04,58,920.56
2019,09,01,04,59,920.56
2019,09,01,05,00,920.56
2019,09,01,05,01,920.56
2019,09,01,05,02,920.56
2019,09,01,05,03,920.56
2019,09,01,05,04,920.56
2019,09,01,05,05,920.56
2019,09,01,05,06,920.56
2019,09,01,05,07,920.56
2019,09,01,05,08,920.56
2019,09,01,05,09,920.56
2019,09,01,05,10,920.56
2019,09,01,05,11,920.56
2019,09,01,05,12,920.56
2019,09,01,05,13,920.56
2019,09,01,05,14,920.56
2019,09,01,05,15,920.56
2019,09,01,05,16,920.56
2019,09,01,05,17,920.56
2019,09,01,05,18,920.56
2019,09,01,05,19,920.56
2019,09,01,05,20,920.56
2019,09,01,05,21,920.56
2019,09,01,05,22,920.56
2019,09,01,05,23,920.56
2019,09,01,05,24,920.56
2019,09,01,05,25,920.56
2019,09,01,05,26,920.56
2019,09,01,05,27,920.56
2019,09,01,05,28,920.56
2019,09,01,05,29,920.56
2019,09,01,05,30,920.56
2019,09,01,05,31,920.56
2019,09,01,05,32,920.56
2019,09,01,05,33,920.56
2019,09,01,05,34,920.56
2019,09,01,05,35,920.56
2019,09,01,05,36,920.56
2019,09,01,05,37,920.56
2019,09,01,05,38,920.56
2019,09,01,05,39,920.56
2019,09,01,05,40,920.56
2019,09,01,05,41,920.56
2019,09,01,05,42,920.56
2019,09,01,05,43,920.56
2019,09,01,05,44,920.56
2019,09,01,05,45,920.56
2019,09,01,05,46,920.56
2019,09,01,05,47,920.56
2019,09,01,05,48,920.56
2019,09,01,05,49,920.56
2019,09,01,05,50,920.56
2019,09,01,05,51,920.56
2019,09,01,05,52,920.56
2019,09,01,05,53,920.56
2019,09,01,05,54,920.56
2019,09,01,05,55,920.56
2019,09,01,05,56,920.56
2019,09,01,05,57,920.56
2019,09,01,05,58,920.56
2019,09,01,05,59,920.56
2019,09,01,06,00,920.56
2019,09,01,06,01,920.56
2019,09,01,06,02,920.56
2019,09,01,06,03,920.56
2019,09,01,06,04,920.56
2019,09,01,06,05,920.56
2019,09,01,06,06,920.56
2019,09,01,06,07,920.56
2019,09,01,06,08,920.56
2019,09,01,06,09,920.56
2019,09,01,06,10,920.56
2019,09,01,06,11,920.56
2019,09,01,06,12,920.56
2019,09,01,06,13,920.56
2019,09,01,06,14,920.56
2019,09,01,06,15,920.56
2019,09,01,06,16,920.56
2019,09,01,06,17,920.56
2019,09,01,06,18,920.56
2019,09,01,06,19,920.56
2019,09,01,06,20,920.56
2019,09,01,06,21,920.56
2019,09,01,06,22,920.56
2019,09,01,06,23,920.56
2019,09,01,06,24,920.56
2019,09,01,06,25,920.56
2019,09,01,06,26,920.56
2019,09,01,06,27,920.56
2019,09,01,06,28,920.56
2019,09,01,06,29,920.56
2019,09,01,06,30,920.56
2019,09,01,06,31,920.56
2019,09,01,06,32,920.56
2019,09,01,06,33,920.56
2019,09,01,06,34,920.56
2019,09,01,06,35,920.56
2019,09,01,06,36,920.56
2019,09,01,06,37,920.56
2019,09,01,06,38,920.56
2019,09,01,06,39,920.56
2019,09,01,06,40,920.56
2019,09,01,06,41,920.56
2019,09,01,06,42,920.56
2019,09,01,06,43,920.56
2019,09,01,06,44,920.56
2019,09,01,06,45,920.56
2019,09,01,06,46,920.56
2019,09,01,06,47,920.56
2019,09,01,06,48,920.56
2019,09,01,06,49,920.56
2019,09,01,06,50,920.56
2019,09,01,06,51,920.56
2019,09,01,06,52,920.56
2019,09,01,06,53,920.56
2019,09,01,06,54,920.56
2019,09,01,06,55,920.56
2019,09,01,06,56,920.56
2019,09,01,06,57,920.56
2019,09,01,06,58,920.56
2019,09,01,06,59,920.56
2019,09,01,07,00,920.56
2019,09,01,07,01,920.56
2019,09,01,07,02,920.56
2019,09,01,07,03,920.56
2019,09,01,07,04,920.56
2019,09,01,07,05,920.56
2019,09,01,07,06,920.56
2019,09,01,07,07,920.56
2019,09,01,07,08,920.56
2019,09,01,07,09,920.56
2019,09,01,07,10,920.56
2019,09,01,07,11,920.56
2019,09,01,07,12,920.56
2019,09,01,07,13,920.56
2019,09,01,07,14,920.56
2019,09,01,07,15,920.56
2019,09,01,07,16,920.56
2019,09,01,07,17,920.56
2019,09,01,07,18,920.56
2019,09,01,07,19,920.56
2019,09,01,07,20,920.56
2019,09,01,07,21,920.56
2019,09,01,07,22,920.56
2019,09,01,07,23,920.56
2019,09,01,07,24,920.56
2019,09,01,07,25,920.56
2019,09,01,07,26,920.56
2019,09,01,07,27,920.56
2019,09,01,07,28,920.56
2019,09,01,07,29,920.56
2019,09,01,07,30,920.56
2019,09,01,07,31,920.56
2019,09,01,07,32,920.56
2019,09,01,07,33,920.56
2019,09,01,07,34,920.56
2019,09,01,07,35,920.56
2019,09,01,07,36,920.56
2019,09,01,07,37,920.56
2019,09,01,07,38,920.56
2019,09,01,07,39,920.56
2019,09,01,07,40,920.56
2019,09,01,07,41,920.56
2019,09,01,07,42,920.56
2019,09,01,07,43,920.56
2019,09,01,07,44,920.56
2019,09,01,07,45,920.56
2019,09,01,07,46,920.56
2019,09,01,07,47,920.56
2019,09,01,07,48,920.56
2019,09,01,07,49,920.56
2019,09,01,07,50,920.56
2019,09,01,07,51,920.56
2019,09,01,07,52,920.56
2019,09,01,07,53,920.56
2019,09,01,07,54,920.56
2019,09,01,07,55,920.56
2019,09,01,07,56,920.56
2019,09,01,07,57,920.56
2019,09,01,07,58,920.56
2019,09,01,07,59,920.56
2019,09,01,08,00,920.56
2019,09,01,08,01,920.56
2019,09,01,08,02,920.56
2019,09,01,08,03,920.56
2019,09,01,08,04,920.56
2019,09,01,08,05,920.56
2019,09,01,08,06,920.56
2019,09,01,08,07,920.56
2019,09,01,08,08,920.56
2019,09,01,08,09,920.56
2019,09,01,08,10,920.56
2019,09,01,08,11,920.56
2019,09,01,08,12,920.56
2019,09,01,08,13,920.56
2019,09,01,08,14,920.56
2019,09,01,08,15,920.56
2019,09,01,08,16,920.56
2019,09,01,08,17,920.56
2019,09,01,08,18,920.56
2019,09,01,08,19,920.56
2019,09,01,08,20,920.56
2019,09,01,08,21,920.56
2019,09,01,08,22,920.56
2019,09,01,08,23,920.56
2019,09,01,08,24,920.56
2019,09,01,08,25,920.56
2019,09,01,08,26,920.56
2019,09,01,08,27,920.56
2019,09,01,08,28,920.56
2019,09,01,08,29,920.56
2019,09,01,08,30,920.56
2019,09,01,08,31,920.56
2019,09,01,08,32,920.56
2019,09,01,08,33,920.56
2019,09,01,08,34,920.56
2019,09,01,08,35,920.56
2019,09,01,08,36,920.56
2019,09,01,08,37,920.56
2019,09,01,08,38,920.56
2019,09,01,08,39,920.56
2019,09,01,08,40,920.56
2019,09,01,08,41,920.56
2019,09,01,08,42,920.56
2019,09,01,08,43,920.56
2019,09,01,08,44,920.56
2019,09,01,08,45,920.56
2019,09,01,08,46,920.56
2019,09,01,08,47,920.56
2019,09,01,08,48,920.56
2019,09,01,08,49,920.56
2019,09,01,08,50,920.56
2019,09,01,08,51,920.56
2019,09,01,08,52,920.56
2019,09,01,08,53,920.56
2019,09,01,08,54,920.56
2019,09,01,08,55,920.56
2019,09,01,08,56,920.56
2019,09,01,08,57,920.56
2019,09,01,08,58,920.56
2019,09,01,08,59,920.56
2019,09,01,09,00,920.56
2019,09,01,09,01,920.56
2019,09,01,09,02,920.56
2019,09,01,09,03,920.56
2019,09,01,09,04,920.56
2019,09,01,09,05,920.56
2019,09,01,09,06,920.56
2019,09,01,09,07,920.56
2019,09,01,09,08,920.56
2019,09,01,09,09,920.56
2019,09,01,09,10,920.56
2019,09,01,09,11,920.56
2019,09,01,09,12,920.56
2019,09,01,09,13,920.56
2019,09,01,09,14,920.56
2019,09,01,09,15,920.56
2019,09,01,09,16,920.56
2019,09,01,09,17,920.56
2019,09,01,09,18,920.56
2019,09,01,09,19,920.56
2019,09,01,09,20,920.56
2019,09,01,09,21,920.56
2019,09,01,09,22,920.56
2019,09,01,09,23,920.56
2019,09,01,09,24,920.56
2019,09,01,09,25,920.56
2019,09,01,09,26,920.56
2019,09,01,09,27,920.56
2019,09,01,09,28,920.56
2019,09,01,09,29,920.56
2019,09,01,09,30,920.56
2019,09,01,09,31,920.56
2019,09,01,09,32,920.56
2019,09,01,09,33,920.56
2019,09,01,09,34,920.56
2019,09,01,09,35,920.56
2019,09,01,09,36,920.56
2019,09,01,09,37,920.56
2019,09,01,09,38,920.56
2019,09,01,09,39,920.56
2019,09,01,09,40,920.56
2019,09,01,09,41,920.56
2019,09,01,09,42,920.56
2019,09,01,09,43,920.56
2019,09,01,09,44,920.56
2019,09,01,09,45,920.56
2019,09,01,09,46,956.78
2019,09,01,09,47,968.85
2019,09,01,09,48,968.87
2019,09,01,09,49,968.86
2019,09,01,09,50,968.85
2019,09,01,09,51,968.85
2019,09,01,09,52,968.85
2019,09,01,09,53,968.82
2019,09,01,09,54,968.81
2019,09,01,09,55,968.81
2019,09,01,09,56,968.81
2019,09,01,09,57,968.81
2019,09,01,09,58,968.81
2019,09,01,09,59,968.81
2019,09,01,10,00,968.81
2019,09,01,10,01,968.81
2019,09,01,10,02,968.81
2019,09,01,10,03,968.81
2019,09,01,10,04,968.81
2019,09,01,10,05,968.81
2019,09,01,10,06,968.81
2019,09,01,10,07,968.84
2019,09,01,10,08,968.85
2019,09,01,10,09,968.74
2019,09,01,10,10,968.71
2019,09,01,10,11,968.71
2019,09,01,10,12,968.71
2019,09,01,10,13,968.71
2019,09,01,10,14,968.71
2019,09,01,10,15,968.71
2019,09,01,10,16,968.83
2019,09,01,10,17,968.85
2019,09,01,10,18,968.82
2019,09,01,10,19,968.81
2019,09,01,10,20,968.78
2019,09,01,10,21,968.84
2019,09,01,10,22,968.85
2019,09,01,10,23,968.85
2019,09,01,10,24,968.85
2019,09,01,10,25,968.85
2019,09,01,10,26,968.85
2019,09,01,10,27,968.85
2019,09,01,10,28,968.85
2019,09,01,10,29,968.85
2019,09,01,10,30,968.85
2019,09,01,10,31,968.85
2019,09,01,10,32,968.85
2019,09,01,10,33,968.85
2019,09,01,10,34,968.85
2019,09,01,10,35,968.85
2019,09,01,10,36,968.85
2019,09,01,10,37,968.85
2019,09,01,10,38,968.94
2019,09,01,10,39,968.95
2019,09,01,10,40,968.95
2019,09,01,10,41,968.95
2019,09,01,10,42,968.95
2019,09,01,10,43,968.95
2019,09,01,10,44,968.95
2019,09,01,10,45,968.95
2019,09,01,10,46,968.95
2019,09,01,10,47,968.95
2019,09,01,10,48,968.95
2019,09,01,10,49,968.95
2019,09,01,10,50,968.95
2019,09,01,10,51,968.95
2019,09,01,10,52,968.95
2019,09,01,10,53,968.95
2019,09,01,10,54,968.95
2019,09,01,10,55,968.95
2019,09,01,10,56,968.95
2019,09,01,10,57,968.95
2019,09,01,10,58,968.95
2019,09,01,10,59,968.95
2019,09,01,11,00,968.95
2019,09,01,11,01,968.95
2019,09,01,11,02,968.95
2019,09,01,11,03,968.95
2019,09,01,11,04,968.95
2019,09,01,11,05,968.95
2019,09,01,11,06,968.95
2019,09,01,11,07,968.95
2019,09,01,11,08,968.95
2019,09,01,11,09,968.95
2019,09,01,11,10,968.95
2019,09,01,11,11,968.95
2019,09,01,11,12,968.95
2019,09,01,11,13,968.95
2019,09,01,11,14,968.95
2019,09,01,11,15,968.95
2019,09,01,11,16,968.95
2019,09,01,11,17,968.95
2019,09,01,11,18,968.95
2019,09,01,11,19,968.95
2019,09,01,11,20,968.95
2019,09,01,11,21,968.95
2019,09,01,11,22,968.95
2019,09,01,11,23,968.95
2019,09,01,11,24,968.95
2019,09,01,11,25,968.95
2019,09,01,11,26,968.95
2019,09,01,11,27,968.95
2019,09,01,11,28,968.95
2019,09,01,11,29,968.95
2019,09,01,11,30,968.95
2019,09,01,11,31,968.95
2019,09,01,11,32,968.95
2019,09,01,11,33,968.95
2019,09,01,11,34,968.95
2019,09,01,11,35,968.95
2019,09,01,11,36,968.95
2019,09,01,11,37,968.95
2019,09,01,11,38,968.95
2019,09,01,11,39,968.95
2019,09,01,11,40,968.95
2019,09,01,11,41,968.95
2019,09,01,11,42,968.95
2019,09,01,11,43,968.95
2019,09,01,11,44,968.95
2019,09,01,11,45,968.95
2019,09,01,11,46,968.95
2019,09,01,11,47,968.95
2019,09,01,11,48,968.95
2019,09,01,11,49,968.95
2019,09,01,11,50,968.95
2019,09,01,11,51,968.95
2019,09,01,11,52,968.95
2019,09,01,11,53,968.95
2019,09,01,11,54,968.95
2019,09,01,11,55,968.95
2019,09,01,11,56,968.95
2019,09,01,11,57,968.95
2019,09,01,11,58,968.95
2019,09,01,11,59,968.95
2019,09,01,12,00,968.95
2019,09,01,12,01,968.95
2019,09,01,12,02,968.95
2019,09,01,12,03,968.95
2019,09,01,12,04,968.95
2019,09,01,12,05,968.95
2019,09,01,12,06,968.95
2019,09,01,12,07,968.95
2019,09,01,12,08,968.95
2019,09,01,12,09,968.95
2019,09,01,12,10,968.95
2019,09,01,12,11,968.95
2019,09,01,12,12,968.95
2019,09,01,12,13,968.95
2019,09,01,12,14,968.95
2019,09,01,12,15,968.95
2019,09,01,12,16,968.95
2019,09,01,12,17,969.00
2019,09,01,12,18,969.49
2019,09,01,12,19,969.49
2019,09,01,12,20,969.49
2019,09,01,12,21,969.49
2019,09,01,12,22,969.49
2019,09,01,12,23,969.49
2019,09,01,12,24,969.49
2019,09,01,12,25,969.49
2019,09,01,12,26,969.49
2019,09,01,12,27,969.49
2019,09,01,12,28,969.49
2019,09,01,12,29,969.47
2019,09,01,12,30,969.39
2019,09,01,12,31,969.38
2019,09,01,12,32,969.35
2019,09,01,12,33,969.35
2019,09,01,12,34,969.35
2019,09,01,12,35,969.35
2019,09,01,12,36,969.35
2019,09,01,12,37,969.35
2019,09,01,12,38,969.35
2019,09,01,12,39,969.35
2019,09,01,12,40,969.35
2019,09,01,12,41,969.35
2019,09,01,12,42,969.35
2019,09,01,12,43,969.35
2019,09,01,12,44,969.35
2019,09,01,12,45,969.35
2019,09,01,12,46,969.35
2019,09,01,12,47,969.35
2019,09,01,12,48,969.35
2019,09,01,12,49,969.35
2019,09,01,12,50,969.35
2019,09,01,12,51,969.35
2019,09,01,12,52,969.35
2019,09,01,12,53,969.35
2019,09,01,12,54,969.35
2019,09,01,12,55,969.35
2019,09,01,12,56,969.35
2019,09,01,12,57,969.35
2019,09,01,12,58,969.35
2019,09,01,12,59,969.35
2019,09,01,13,00,969.35
2019,09,01,13,01,969.35
2019,09,01,13,02,969.35
2019,09,01,13,03,969.35
2019,09,01,13,04,969.35
2019,09,01,13,05,969.35
2019,09,01,13,06,969.35
2019,09,01,13,07,969.35
2019,09,01,13,08,969.35
2019,09,01,13,09,969.35
2019,09,01,13,10,969.35
2019,09,01,13,11,969.35
2019,09,01,13,12,969.35
2019,09,01,13,13,969.39
2019,09,01,13,14,969.49
2019,09,01,13,15,969.49
2019,09,01,13,16,969.49
2019,09,01,13,17,969.49
2019,09,01,13,18,969.49
2019,09,01,13,19,969.49
2019,09,01,13,20,969.49
2019,09,01,13,21,969.49
2019,09,01,13,22,969.49
2019,09,01,13,23,969.49
2019,09,01,13,24,969.49
2019,09,01,13,25,969.49
2019,09,01,13,26,969.49
2019,09,01,13,27,969.49
2019,09,01,13,28,969.49
2019,09,01,13,29,969.49
2019,09,01,13,30,969.49
2019,09,01,13,31,969.49
2019,09,01,13,32,969.49
2019,09,01,13,33,969.49
2019,09,01,13,34,969.49
2019,09,01,13,35,969.49
2019,09,01,13,36,969.49
2019,09,01,13,37,969.49
2019,09,01,13,38,969.49
2019,09,01,13,39,969.49
2019,09,01,13,40,969.49
2019,09,01,13,41,969.49
2019,09,01,13,42,969.49
2019,09,01,13,43,969.49
2019,09,01,13,44,969.49
2019,09,01,13,45,969.49
2019,09,01,13,46,969.49
2019,09,01,13,47,969.49
2019,09,01,13,48,969.49
2019,09,01,13,49,969.49
2019,09,01,13,50,969.49
2019,09,01,13,51,969.49
2019,09,01,13,52,969.49
2019,09,01,13,53,969.49
2019,09,01,13,54,969.49
2019,09,01,13,55,969.49
2019,09,01,13,56,969.49
2019,09,01,13,57,969.49
2019,09,01,13,58,969.49
2019,09,01,13,59,969.49
2019,09,01,14,00,969.49
2019,09,01,14,01,969.49
2019,09,01,14,02,969.49
2019,09,01,14,03,969.49
2019,09,01,14,04,969.49
2019,09,01,14,05,969.49
2019,09,01,14,06,969.49
2019,09,01,14,07,969.49
2019,09,01,14,08,969.49
2019,09,01,14,09,969.53
2019,09,01,14,10,969.59
2019,09,01,14,11,969.59
2019,09,01,14,12,969.59
2019,09,01,14,13,969.59
2019,09,01,14,14,969.59
2019,09,01,14,15,969.59
2019,09,01,14,16,969.59
2019,09,01,14,17,969.59
2019,09,01,14,18,969.59
2019,09,01,14,19,969.59
2019,09,01,14,20,969.59
2019,09,01,14,21,969.59
2019,09,01,14,22,969.59
2019,09,01,14,23,969.59
2019,09,01,14,24,969.59
2019,09,01,14,25,969.59
2019,09,01,14,26,969.59
2019,09,01,14,27,969.59
2019,09,01,14,28,969.59
2019,09,01,14,29,969.59
2019,09,01,14,30,969.59
2019,09,01,14,31,969.59
2019,09,01,14,32,969.59
2019,09,01,14,33,969.59
2019,09,01,14,34,969.59
2019,09,01,14,35,969.59
2019,09,01,14,36,969.59
2019,09,01,14,37,969.59
2019,09,01,14,38,969.59
2019,09,01,14,39,969.59
2019,09,01,14,40,969.59
2019,09,01,14,41,969.59
2019,09,01,14,42,969.59
2019,09,01,14,43,969.59
2019,09,01,14,44,969.59
2019,09,01,14,45,969.59
2019,09,01,14,46,969.59
2019,09,01,14,47,969.59
2019,09,01,14,48,969.59
2019,09,01,14,49,969.59
2019,09,01,14,50,969.59
2019,09,01,14,51,969.59
2019,09,01,14,52,969.59
2019,09,01,14,53,969.59
2019,09,01,14,54,969.59
2019,09,01,14,55,969.59
2019,09,01,14,56,969.59
2019,09,01,14,57,969.59
2019,09,01,14,58,969.59
2019,09,01,14,59,969.59
2019,09,01,15,00,969.59
2019,09,01,15,01,969.59
2019,09,01,15,02,969.59
2019,09,01,15,03,969.59
2019,09,01,15,04,969.59
2019,09,01,15,05,969.59
2019,09,01,15,06,969.59
2019,09,01,15,07,969.59
2019,09,01,15,08,969.59
2019,09,01,15,09,969.59
2019,09,01,15,10,969.59
2019,09,01,15,11,969.59
2019,09,01,15,12,969.59
2019,09,01,15,13,969.59
2019,09,01,15,14,969.59
2019,09,01,15,15,969.59
2019,09,01,15,16,969.59
2019,09,01,15,17,969.59
2019,09,01,15,18,969.59
2019,09,01,15,19,969.59
2019,09,01,15,20,969.59
2019,09,01,15,21,969.59
2019,09,01,15,22,969.59
2019,09,01,15,23,969.59
2019,09,01,15,24,969.59
2019,09,01,15,25,969.59
2019,09,01,15,26,969.59
2019,09,01,15,27,969.59
2019,09,01,15,28,969.59
2019,09,01,15,29,969.59
2019,09,01,15,30,969.59
2019,09,01,15,31,969.59
2019,09,01,15,32,969.59
2019,09,01,15,33,969.59
2019,09,01,15,34,969.59
2019,09,01,15,35,969.59
2019,09,01,15,36,969.59
2019,09,01,15,37,969.59
2019,09,01,15,38,969.59
2019,09,01,15,39,969.59
2019,09,01,15,40,969.59
2019,09,01,15,41,969.59
2019,09,01,15,42,969.59
2019,09,01,15,43,969.59
2019,09,01,15,44,969.59
2019,09,01,15,45,969.59
2019,09,01,15,46,969.59
2019,09,01,15,47,969.59
2019,09,01,15,48,969.59
2019,09,01,15,49,969.59
2019,09,01,15,50,969.59
2019,09,01,15,51,969.59
2019,09,01,15,52,969.59
2019,09,01,15,53,969.59
2019,09,01,15,54,969.59
2019,09,01,15,55,969.59
2019,09,01,15,56,969.59
2019,09,01,15,57,969.59
2019,09,01,15,58,969.59
2019,09,01,15,59,969.59
2019,09,01,16,00,969.59
2019,09,01,16,01,969.59
2019,09,01,16,02,969.59
2019,09,01,16,03,969.59
2019,09,01,16,04,969.59
2019,09,01,16,05,969.59
2019,09,01,16,06,969.59
2019,09,01,16,07,969.59
2019,09,01,16,08,969.59
2019,09,01,16,09,969.59
2019,09,01,16,10,969.59
2019,09,01,16,11,969.59
2019,09,01,16,12,969.59
2019,09,01,16,13,969.59
2019,09,01,16,14,969.59
2019,09,01,16,15,969.59
2019,09,01,16,16,969.59
2019,09,01,16,17,969.59
2019,09,01,16,18,969.59
2019,09,01,16,19,969.59
2019,09,01,16,20,969.59
2019,09,01,16,21,969.59
2019,09,01,16,22,969.59
2019,09,01,16,23,969.59
2019,09,01,16,24,969.59
2019,09,01,16,25,969.59
2019,09,01,16,26,969.59
2019,09,01,16,27,969.59
2019,09,01,16,28,969.59
2019,09,01,16,29,969.59
2019,09,01,16,30,969.59
2019,09,01,16,31,969.59
2019,09,01,16,32,969.59
2019,09,01,16,33,969.59
2019,09,01,16,34,969.59
2019,09,01,16,35,969.59
2019,09,01,16,36,969.59
2019,09,01,16,37,969.59
2019,09,01,16,38,969.59
2019,09,01,16,39,969.59